GFSFLT1_850_thetae_111.txt.gz
Theta_e
334 337 336 333 326 331 330 329 326 322 321 319 321 320 324 324 332 333 326 336 338 339 338 339 338 338 338 338 338 339 336 328 324
335 335 335 333 330 331 330 326 325 323 315 315 313 319 320 325 330 334 335 331 337 337 337 338 338 338 339 339 339 337 336 333 323
335 335 335 334 326 330 327 324 323 319 312 310 310 311 316 321 330 333 334 333 333 334 334 336 337 337 336 336 335 326 322 320 324
334 334 329 327 325 327 323 323 320 312 308 306 307 308 310 312 319 324 328 328 333 331 331 332 334 335 335 335 334 334 326 320 318
329 325 323 322 323 324 322 318 312 307 305 305 305 306 307 309 310 323 325 323 328 330 330 331 331 331 332 333 333 333 332 331 319
325 322 321 321 321 319 314 310 306 305 305 305 306 306 307 308 320 323 317 322 321 315 316 323 327 328 329 331 333 332 332 332 332
322 320 320 319 318 313 308 306 305 306 307 308 309 309 310 312 321 319 315 313 308 306 306 307 309 314 321 324 325 327 329 332 332
320 319 318 313 310 307 306 306 307 308 308 308 308 309 310 309 312 311 311 308 306 305 304 304 304 304 305 307 314 320 324 327 329
318 317 313 308 306 307 307 307 308 308 309 308 308 308 308 307 308 307 307 307 307 306 305 305 305 305 305 304 304 304 308 319 325
317 313 308 307 307 308 308 308 308 309 309 309 309 308 308 307 307 307 307 307 307 306 306 306 306 305 305 305 304 304 304 304 305
310 307 307 307 308 308 308 309 308 308 308 308 308 309 308 308 307 307 307 307 307 307 307 306 306 306 306 305 305 305 304 304 303
307 307 307 308 308 308 308 308 308 308 308 308 309 309 309 308 308 308 308 307 307 307 306 306 306 306 306 306 305 305 304 304 303
307 307 307 308 308 308 308 309 308 308 308 308 308 309 309 309 309 309 308 307 307 307 306 306 306 305 305 305 305 305 305 304 303
307 307 307 308 308 308 308 308 308 308 308 308 308 308 309 309 309 309 309 308 308 307 307 306 306 305 305 305 305 304 304 304 303
308 308 308 308 308 308 308 308 308 308 308 308 308 308 309 309 309 309 309 308 308 307 307 306 306 305 305 305 305 304 304 303 303
308 308 308 308 308 308 308 308 308 308 308 308 308 308 308 309 309 308 308 308 308 307 307 307 306 305 305 305 304 304 303 302 302
309 309 309 309 309 308 308 308 308 308 308 308 308 308 308 308 308 308 308 308 308 307 307 307 306 306 305 305 304 304 303 302 301
309 309 309 309 309 308 308 308 308 307 307 308 308 308 309 308 308 308 308 308 307 306 306 306 306 306 306 305 305 304 302 301 300
310 309 309 309 309 308 308 308 308 307 307 307 307 308 308 309 309 307 307 307 306 306 306 306 306 306 305 305 304 301 298 297 296
311 310 310 310 309 309 309 308 308 307 308 307 308 309 309 308 308 309 308 307 307 307 307 306 306 305 304 302 298 296 295 295 295

GFSFLT1_850_thetae_114.txt.gz
Theta_e
338 339 334 329 334 330 328 324 321 320 321 321 321 324 327 335 336 335 338 339 339 338 339 339 339 339 339 339 339 333 323 332 327
337 337 334 332 332 331 327 324 322 314 315 316 320 323 328 337 339 336 336 335 337 338 338 338 338 338 337 329 324 321 331 333 332
336 336 334 333 332 330 325 323 320 312 310 311 314 322 331 333 334 333 333 333 334 336 337 337 337 336 336 336 325 321 320 327 333
336 336 335 329 330 327 323 321 314 310 308 308 310 313 324 329 330 330 332 332 331 332 334 335 335 335 336 336 335 331 322 320 321
335 335 328 324 327 321 321 316 309 305 306 306 307 310 323 327 328 328 328 329 332 329 327 330 333 333 334 334 334 333 333 329 317
331 333 323 323 323 319 315 309 306 305 305 306 308 322 325 325 326 326 322 320 318 314 315 318 323 328 330 331 333 333 333 333 333
330 327 322 324 319 314 308 306 305 314 315 309 321 326 324 324 325 324 316 312 306 305 305 306 309 314 318 323 327 329 331 333 333
326 326 325 327 315 309 306 306 317 320 320 321 324 325 323 324 324 321 315 315 308 306 305 305 304 304 304 306 311 318 323 326 329
324 323 323 324 319 307 307 308 309 316 319 321 321 321 321 322 320 311 309 309 309 307 306 306 306 305 305 305 304 304 305 311 320
323 321 319 316 307 307 307 309 310 313 316 318 318 317 317 318 317 313 308 308 308 307 307 306 306 306 306 306 305 305 305 304 304
320 318 313 308 308 308 309 310 310 310 311 311 313 313 313 314 315 315 307 307 307 308 307 307 306 306 306 306 306 305 305 305 304
316 313 309 308 308 309 310 310 309 309 309 310 310 311 311 311 310 312 312 307 307 307 306 306 306 306 306 305 305 305 305 305 305
310 309 309 308 308 308 308 308 309 310 310 310 310 310 310 310 309 308 308 308 309 307 307 306 306 305 305 305 305 305 305 305 305
307 308 307 308 308 308 309 309 310 310 310 310 310 310 310 310 309 309 309 308 308 307 307 306 306 305 305 305 305 305 304 304 304
307 307 308 308 308 308 309 309 310 311 311 310 310 309 309 309 310 309 309 309 308 307 307 306 306 306 305 305 305 305 304 303 303
307 307 308 308 308 308 309 311 309 309 311 311 310 309 309 310 309 309 309 308 308 308 307 307 306 306 305 305 305 305 304 304 302
308 308 308 308 308 308 309 308 310 310 308 311 312 311 310 308 309 308 308 308 308 308 307 307 306 306 306 305 305 304 304 303 301
308 308 309 308 308 308 308 308 308 308 308 308 310 311 311 312 309 308 308 308 308 308 307 306 306 306 306 305 305 304 303 301 299
310 309 309 309 309 309 308 308 308 308 308 307 307 308 311 311 312 309 308 308 307 307 307 306 306 306 306 305 305 303 300 297 296
318 312 309 309 309 308 309 309 308 308 308 307 309 307 308 310 311 311 311 308 307 307 306 306 306 304 305 304 302 299 296 295 295

GFSFLT1_850_thetae_117.txt.gz
Theta_e
341 337 332 332 329 329 323 320 320 321 320 321 327 333 334 337 337 338 339 339 339 339 339 340 337 335 330 325 333 335 331 330 334
340 336 333 335 331 329 322 321 316 316 318 322 326 334 335 335 335 335 337 339 339 338 337 337 338 334 324 322 321 332 334 332 333
338 336 334 335 332 327 322 319 313 311 312 318 326 334 334 333 332 331 333 335 337 338 338 337 337 337 337 329 321 318 324 331 332
337 335 334 334 331 324 321 317 311 309 309 312 321 329 330 330 333 332 331 332 332 335 336 336 335 336 336 336 335 327 317 319 327
336 336 332 331 328 322 320 313 307 306 307 309 315 325 328 329 328 328 329 332 334 332 333 333 333 334 335 334 335 335 334 328 327
334 335 328 330 325 320 314 308 305 305 307 315 325 326 326 327 326 324 325 321 317 315 322 323 325 327 331 332 332 332 333 332 330
335 331 326 327 320 315 308 305 312 315 318 325 326 325 326 325 325 322 319 314 308 305 305 306 309 314 318 322 327 329 330 331 332
331 326 329 323 316 309 305 313 322 322 323 326 325 324 325 324 322 319 313 314 312 308 306 305 305 305 304 305 307 313 319 324 327
328 327 329 327 319 315 315 319 322 322 323 323 322 323 324 321 320 320 320 319 316 309 307 306 306 306 305 305 305 305 304 304 307
325 325 325 323 315 312 314 317 319 320 321 320 319 320 320 319 319 314 314 315 314 314 311 308 307 306 306 306 306 305 305 304 304
324 323 319 317 311 312 313 313 314 315 316 316 316 316 317 317 318 313 309 310 310 310 310 309 307 306 306 306 306 306 306 305 305
322 320 315 312 311 312 312 312 313 313 313 313 313 313 314 316 317 315 308 307 307 307 306 306 306 307 306 305 306 305 305 305 305
319 316 312 311 311 312 312 312 313 313 313 312 312 312 312 312 313 314 314 313 309 307 306 306 306 305 305 305 305 305 305 305 305
315 313 312 311 311 312 312 312 312 312 312 312 312 312 312 312 311 311 309 308 309 308 307 306 306 306 305 305 305 305 305 305 304
312 312 312 311 311 312 312 313 312 312 312 311 312 312 312 312 312 311 311 309 308 308 307 307 306 306 305 305 305 305 305 305 304
312 312 311 311 311 312 312 313 313 313 312 312 312 312 312 312 312 311 310 310 309 308 307 307 307 307 306 306 305 305 305 304 304
307 308 309 309 312 313 313 313 313 313 313 313 313 313 312 311 311 311 311 310 309 308 308 307 307 306 306 306 305 305 305 304 302
307 307 308 308 312 313 313 312 313 313 312 312 313 312 312 313 312 310 309 309 309 309 308 307 306 306 306 306 305 305 304 302 300
313 308 308 308 311 312 312 311 309 311 311 308 307 310 312 313 313 311 311 310 310 309 308 307 306 306 306 305 305 304 303 300 298
318 309 308 309 309 309 309 309 309 309 309 312 311 308 308 308 310 312 312 310 310 308 308 307 306 306 305 304 303 302 300 297 296

GFSFLT1_850_thetae_123.txt.gz
Theta_e
338 334 327 328 320 317 319 319 320 325 332 334 334 331 337 337 338 338 338 339 339 334 328 323 320 323 332 334 334 334 336 336 336
337 335 331 328 321 317 314 321 324 332 332 330 330 327 335 336 337 338 338 338 338 338 337 336 334 327 319 332 333 335 335 335 335
337 337 333 328 320 316 312 315 323 332 331 332 332 330 331 334 335 336 336 336 336 336 333 330 332 334 332 326 331 334 335 335 334
336 337 334 328 318 315 310 310 324 331 330 332 331 330 327 328 330 332 333 332 332 331 332 332 333 333 332 332 334 327 332 335 335
335 336 333 326 317 313 308 308 318 330 328 329 329 325 321 325 324 329 330 330 331 329 331 330 332 332 331 332 333 332 325 328 330
335 334 331 321 316 309 306 309 319 325 326 324 323 322 315 314 316 321 323 322 318 320 324 325 323 322 323 325 328 330 332 330 328
334 330 326 317 312 306 307 321 325 325 325 324 324 315 310 311 315 319 316 313 306 306 306 306 306 306 307 309 312 318 320 327 329
330 329 324 316 308 308 321 325 326 325 326 325 324 316 308 309 310 312 309 308 307 307 306 307 306 306 306 306 306 305 305 308 315
332 330 320 313 311 318 318 320 325 324 324 323 323 320 309 310 311 310 308 308 308 307 307 307 306 306 306 306 306 306 306 305 305
330 322 317 309 311 316 319 323 323 323 323 323 322 319 311 310 310 309 308 308 308 307 307 306 306 306 306 306 305 305 305 305 305
324 325 323 315 310 314 321 321 320 320 320 320 319 318 314 309 309 309 309 308 308 308 307 306 306 306 305 305 305 305 305 305 305
325 327 325 321 311 316 320 318 320 318 317 318 317 317 314 311 308 308 307 307 307 307 306 306 306 306 305 305 306 306 306 306 305
325 325 324 321 311 314 316 316 320 317 316 315 314 314 314 313 312 309 308 307 307 306 306 306 306 306 305 305 306 306 306 306 306
325 323 321 314 312 313 313 313 313 313 313 312 313 312 313 312 311 310 310 309 308 307 307 306 306 305 305 305 306 306 306 306 306
324 322 318 311 312 312 312 312 312 312 312 312 311 311 311 311 311 311 310 309 308 308 307 307 306 306 306 305 306 306 306 306 306
321 319 315 311 312 312 312 312 312 312 312 312 312 312 312 311 311 311 311 310 310 309 308 308 307 307 306 306 305 305 306 306 306
320 316 313 311 311 312 312 312 312 312 311 311 312 312 311 311 311 311 311 311 310 310 309 308 308 307 307 306 306 305 305 305 305
316 313 312 311 311 311 312 312 312 312 311 311 312 313 313 312 311 312 311 311 310 310 309 309 308 308 307 307 307 306 305 305 304
313 312 312 311 311 312 312 313 313 312 312 312 312 312 312 311 312 311 311 311 310 310 309 309 309 308 308 307 307 306 305 304 303
314 312 312 311 311 312 311 312 311 312 313 311 310 309 308 308 308 308 308 310 311 310 309 309 308 308 307 307 307 306 304 304 302